Вернуться в каталог

IONOSFERA-M 04

АктивенНаукаSSO
NORAD 64877·PAYLOAD·🇷🇺 Russia

Запущен Jul 25, 2025 с Vostochny Cosmodrome

Loading…

Ближайшие Пролёты (ближайшие 24 часа)

TLE

СвежийSource: Space-Track

Эпоха: Sep 14, 2026, 22:55 UTC

1 64877U 25155B   26257.95532757  .00000033  00000-0  34561-4 0  9994
2 64877  98.6131 217.5578 0000831  48.7647 311.3602 14.21501908 59152

Отслеживайте IONOSFERA-M 04 в реальном времени с AllMySat

Download on the App Store